Total_Precipitation_Accumulation
0.02 0.09 0.23 0.32 0.57 1.16 1.18 0.84 0.46 0.29 0.28 0.35 0.38 0.37 0.46 0.53 0.59 0.97 0.51 0.25 0.14 0.13 0.25 0.35 0.34 0.28 0.26 0.27 0.32 0.33 0.30 0.28 0.32 0.33 0.36 0.39 0.40 0.37 0.37 0.41 0.43 0.43 0.42 0.40 0.43 0.44 0.41 0.34 0.32
0.02 0.09 0.23 0.33 0.83 1.43 1.15 0.79 0.43 0.31 0.24 0.36 0.47 0.40 0.55 0.48 0.23 0.23 0.29 0.25 0.13 0.10 0.17 0.19 0.21 0.22 0.21 0.22 0.26 0.32 0.31 0.29 0.31 0.35 0.42 0.47 0.48 0.44 0.41 0.40 0.38 0.37 0.34 0.33 0.36 0.38 0.32 0.28 0.27
0.02 0.08 0.20 0.34 0.85 1.03 0.79 0.55 0.32 0.27 0.20 0.25 0.39 0.33 0.44 0.53 0.31 0.25 0.26 0.23 0.15 0.12 0.17 0.20 0.19 0.16 0.18 0.18 0.19 0.27 0.35 0.37 0.35 0.38 0.44 0.48 0.54 0.49 0.44 0.42 0.41 0.38 0.35 0.33 0.31 0.30 0.26 0.23 0.27
0.01 0.06 0.16 0.30 0.56 0.58 0.43 0.37 0.28 0.27 0.24 0.22 0.33 0.43 0.54 0.42 0.36 0.36 0.33 0.32 0.21 0.17 0.16 0.18 0.20 0.19 0.18 0.17 0.18 0.21 0.30 0.35 0.36 0.37 0.44 0.46 0.53 0.55 0.46 0.41 0.41 0.40 0.37 0.32 0.25 0.23 0.25 0.26 0.31
0.01 0.05 0.16 0.25 0.32 0.39 0.36 0.32 0.26 0.28 0.25 0.29 0.40 0.68 0.88 0.61 0.43 0.41 0.41 0.40 0.32 0.22 0.20 0.18 0.21 0.20 0.20 0.20 0.22 0.23 0.25 0.29 0.30 0.30 0.35 0.40 0.44 0.49 0.45 0.43 0.41 0.36 0.32 0.28 0.24 0.24 0.28 0.34 0.36
0.01 0.03 0.12 0.15 0.20 0.26 0.29 0.24 0.25 0.23 0.26 0.38 0.56 0.81 0.87 0.69 0.64 0.67 0.70 0.60 0.59 0.42 0.30 0.27 0.28 0.24 0.22 0.21 0.24 0.25 0.25 0.24 0.27 0.25 0.28 0.34 0.38 0.39 0.42 0.40 0.38 0.31 0.27 0.25 0.25 0.28 0.32 0.36 0.39
0.00 0.02 0.04 0.07 0.12 0.18 0.22 0.20 0.21 0.22 0.31 0.48 0.66 0.96 0.96 0.94 0.92 0.87 1.03 1.12 0.93 0.66 0.49 0.42 0.35 0.28 0.28 0.29 0.29 0.26 0.25 0.26 0.27 0.25 0.28 0.38 0.40 0.43 0.45 0.41 0.37 0.36 0.33 0.29 0.26 0.28 0.31 0.34 0.35
0.01 0.02 0.03 0.04 0.07 0.14 0.14 0.16 0.17 0.22 0.36 0.45 0.61 0.99 1.19 1.02 1.07 1.11 1.29 1.40 1.33 0.93 0.72 0.57 0.54 0.50 0.42 0.35 0.34 0.35 0.33 0.34 0.34 0.32 0.37 0.43 0.43 0.45 0.50 0.46 0.45 0.46 0.47 0.41 0.39 0.34 0.31 0.34 0.35
0.01 0.01 0.03 0.02 0.04 0.09 0.08 0.14 0.18 0.16 0.22 0.39 0.57 0.85 0.92 0.85 0.96 1.08 1.28 1.43 1.61 1.40 1.01 0.80 0.72 0.68 0.64 0.54 0.48 0.52 0.52 0.52 0.49 0.54 0.58 0.63 0.67 0.65 0.77 0.71 0.75 0.68 0.71 0.69 0.67 0.58 0.52 0.48 0.45
0.00 0.01 0.01 0.01 0.02 0.04 0.07 0.11 0.17 0.14 0.33 0.60 0.73 0.82 0.73 0.85 0.95 1.14 1.28 1.33 1.48 1.58 1.16 1.02 0.83 0.73 0.74 0.84 0.98 0.93 0.82 0.83 0.86 0.98 1.04 1.21 1.26 1.20 0.97 1.02 1.16 1.22 1.34 1.27 1.21 1.15 0.90 0.76 0.71
0.00 0.01 0.01 0.02 0.01 0.02 0.07 0.07 0.13 0.16 0.48 0.96 1.11 1.11 1.00 0.96 1.09 1.32 1.54 1.56 1.44 1.51 1.25 1.15 1.12 1.06 0.95 1.08 1.22 1.23 1.16 1.20 1.20 1.26 1.36 1.45 1.31 1.23 1.15 1.22 1.43 1.53 1.65 1.60 1.76 1.80 1.50 1.45 1.47
0.00 0.00 0.01 0.01 0.01 0.03 0.05 0.06 0.11 0.20 0.49 0.79 1.07 1.04 1.16 1.12 1.20 1.43 1.73 1.89 1.88 1.97 1.67 1.51 1.53 1.38 1.28 1.25 1.36 1.38 1.37 1.29 1.30 1.46 1.42 1.55 1.64 1.57 1.55 1.65 1.66 1.74 1.91 2.24 2.08 2.23 2.15 2.00 1.87
0.00 0.00 0.00 0.01 0.01 0.02 0.05 0.11 0.13 0.23 0.36 0.57 0.82 0.82 0.87 1.16 1.53 1.89 2.24 2.23 2.36 2.52 2.42 2.12 1.87 1.67 1.61 1.71 1.67 1.59 1.58 1.54 1.62 1.76 1.74 1.77 1.94 1.94 1.98 1.93 1.93 1.78 1.97 2.32 2.41 2.31 2.53 2.58 2.36
0.00 0.00 0.00 0.01 0.02 0.03 0.06 0.13 0.20 0.33 0.43 0.50 0.76 0.99 1.03 1.37 1.70 2.25 2.88 2.77 2.54 2.71 2.79 2.58 2.35 2.17 2.12 2.22 2.26 2.10 1.91 2.00 2.06 2.04 1.93 1.97 2.18 2.38 2.42 2.27 2.20 2.05 2.07 2.28 2.42 2.45 2.95 2.84 2.68
0.00 0.01 0.02 0.05 0.06 0.09 0.12 0.28 0.42 0.47 0.45 0.54 0.83 1.16 1.36 1.54 1.88 2.21 2.57 2.88 3.01 3.09 3.01 2.95 2.86 2.74 2.75 2.69 2.62 2.43 2.34 2.18 2.16 2.21 2.28 2.24 2.26 2.48 2.54 2.52 2.39 2.31 2.27 2.42 2.47 2.67 2.92 2.64 2.53
0.01 0.02 0.05 0.09 0.09 0.11 0.18 0.51 0.51 0.43 0.44 0.77 0.98 1.33 1.59 1.69 1.97 2.37 2.70 3.19 3.42 3.45 3.42 3.38 3.22 3.20 3.17 3.11 2.97 2.80 2.66 2.37 2.15 2.15 2.30 2.34 2.36 2.49 2.58 2.41 2.31 2.51 2.59 2.67 2.82 2.92 2.95 2.80 2.71
0.03 0.04 0.07 0.10 0.11 0.11 0.18 0.39 0.51 0.46 0.61 0.90 1.17 1.49 1.79 2.05 2.52 2.98 3.21 3.33 3.66 3.94 4.06 4.02 3.95 3.71 3.47 3.38 3.34 3.35 3.26 2.92 2.55 2.42 2.40 2.41 2.29 2.33 2.49 2.36 2.44 2.61 2.70 2.73 2.52 2.90 2.90 2.91 2.82
0.04 0.05 0.10 0.14 0.13 0.14 0.22 0.37 0.48 0.54 0.72 1.09 1.48 1.76 2.03 2.43 2.93 3.27 3.53 3.87 4.00 4.21 4.55 4.42 4.29 4.24 4.16 4.04 3.77 3.73 3.49 3.18 2.97 2.81 2.77 2.60 2.45 2.44 2.60 2.45 2.52 2.65 2.76 2.76 2.78 2.97 2.95 2.79 2.77
0.05 0.07 0.11 0.15 0.14 0.17 0.33 0.51 0.54 0.70 0.97 1.24 1.54 1.82 2.16 2.46 2.88 3.33 3.39 3.58 3.87 4.42 4.74 4.81 4.94 4.83 4.55 4.13 3.69 3.48 3.37 3.32 3.12 2.86 2.63 2.55 2.50 2.60 2.81 2.64 2.78 2.76 2.62 2.62 2.77 2.93 2.77 2.55 2.67
0.06 0.09 0.13 0.15 0.14 0.15 0.30 0.49 0.60 0.93 1.21 1.26 1.39 1.54 1.75 2.18 2.58 2.91 3.06 3.11 3.46 4.02 4.43 4.56 4.32 4.19 4.05 3.77 3.62 3.58 3.73 3.42 3.09 2.88 2.63 2.46 2.44 2.53 2.46 2.53 2.43 2.48 2.60 2.60 2.63 2.80 2.65 2.27 2.41
0.05 0.06 0.11 0.16 0.15 0.20 0.31 0.61 0.81 1.05 1.18 1.21 1.28 1.39 1.54 1.89 2.21 2.51 2.59 2.69 2.90 3.02 3.25 3.42 3.58 3.47 3.36 3.31 3.27 3.30 3.45 3.17 2.84 2.63 2.50 2.30 2.20 2.16 2.16 2.15 2.25 2.52 2.55 2.52 2.59 2.60 2.46 2.14 2.12
0.06 0.07 0.06 0.08 0.15 0.27 0.41 0.92 1.15 1.07 1.12 1.26 1.28 1.31 1.53 1.86 1.83 1.92 2.10 2.28 2.56 2.66 2.82 2.88 2.92 3.01 3.00 3.03 2.89 2.71 2.60 2.45 2.31 2.30 2.25 2.24 2.14 2.03 1.98 1.98 2.05 2.15 2.14 2.20 2.04 2.13 2.27 2.29 2.08
0.05 0.05 0.06 0.09 0.18 0.29 0.41 0.71 1.09 1.41 1.46 1.25 1.19 1.14 1.35 1.51 1.42 1.41 1.57 1.71 1.91 2.05 2.28 2.44 2.53 2.59 2.67 2.67 2.54 2.51 2.30 2.25 2.25 2.20 2.16 2.09 2.02 1.97 1.92 1.85 1.82 1.76 1.77 1.89 1.88 1.96 1.99 1.99 1.95
0.04 0.06 0.12 0.23 0.41 0.64 0.54 0.66 1.05 1.40 1.63 1.33 1.16 1.10 1.20 1.17 1.16 1.28 1.38 1.43 1.56 1.77 1.95 2.09 2.21 2.23 2.33 2.37 2.34 2.28 2.20 2.17 2.09 2.01 1.97 1.94 1.93 1.81 1.74 1.74 1.75 1.69 1.67 1.73 1.78 1.85 1.79 1.81 1.86
0.06 0.13 0.45 0.81 1.10 1.12 0.72 0.75 1.11 1.12 1.13 1.13 1.10 1.14 1.13 1.04 0.98 1.00 1.08 1.21 1.36 1.55 1.66 1.72 1.84 1.91 1.91 1.93 1.96 1.91 1.95 2.01 1.84 1.71 1.70 1.66 1.52 1.40 1.40 1.43 1.54 1.55 1.60 1.62 1.65 1.69 1.69 1.77 1.83
0.10 0.15 0.50 0.76 0.82 0.92 0.80 1.07 1.40 1.10 1.01 0.95 1.01 1.09 1.05 0.90 0.84 0.85 0.96 1.01 1.08 1.22 1.37 1.44 1.57 1.66 1.77 1.78 1.75 1.70 1.68 1.66 1.50 1.53 1.48 1.41 1.23 1.15 1.27 1.41 1.48 1.53 1.57 1.51 1.59 1.53 1.51 1.63 1.71
0.15 0.17 0.23 0.43 0.48 0.69 0.89 1.17 1.33 1.01 0.97 1.06 1.16 1.15 1.07 0.85 0.70 0.67 0.74 0.80 0.79 0.84 0.96 1.12 1.40 1.53 1.61 1.64 1.59 1.47 1.42 1.39 1.34 1.39 1.45 1.35 1.29 1.19 1.25 1.33 1.45 1.50 1.60 1.60 1.60 1.51 1.56 1.74 1.73
0.15 0.15 0.19 0.36 0.52 0.72 0.85 1.20 1.47 1.32 1.26 1.24 1.29 1.10 0.81 0.65 0.54 0.51 0.54 0.55 0.58 0.63 0.75 0.89 1.07 1.17 1.26 1.37 1.39 1.18 1.24 1.31 1.28 1.27 1.22 1.23 1.24 1.23 1.20 1.24 1.30 1.30 1.34 1.43 1.46 1.43 1.53 1.72 1.71
0.19 0.21 0.28 0.39 0.42 0.64 0.98 1.17 1.10 1.10 1.11 1.17 1.14 0.93 0.67 0.55 0.46 0.46 0.48 0.52 0.54 0.57 0.68 0.81 0.96 1.07 1.10 1.16 1.22 1.15 1.13 1.19 1.22 1.19 1.14 1.14 1.15 1.18 1.16 1.16 1.14 1.11 1.05 1.09 1.22 1.28 1.43 1.46 1.45
0.17 0.19 0.28 0.42 0.41 0.45 0.69 0.88 0.61 0.63 0.70 0.78 0.80 0.67 0.55 0.53 0.50 0.53 0.55 0.57 0.57 0.65 0.73 0.80 0.90 1.01 1.05 1.16 1.27 1.31 1.25 1.20 1.20 1.16 1.06 1.01 0.98 1.00 1.04 1.04 0.99 0.94 0.95 1.02 1.06 1.16 1.29 1.35 1.32